Weather History for Richlands, VA

Change the Weather History Date:

Sunday, May 4, 2014

  Actual Average (KBLF) Record (KBLF)
Temperature  
Mean Temperature 66 °F 60 °F  
Max Temperature 78 °F 70 °F 80 °F (1996)
Min Temperature 54 °F 50 °F 33 °F (2004)
Degree Days  
Heating Degree Days 0 6  
Month to date heating degree days 26  
Since 1 July heating degree days 4456  
Cooling Degree Days 1 1  
Month to date cooling degree days 4  
Year to date cooling degree days 32  
Growing Degree Days 16 (Base 50)    
Moisture  
Dew Point 42 °F    
Average Humidity 42    
Maximum Humidity 60    
Minimum Humidity 25    
Precipitation  
Precipitation 0.00 in 0.13 in 0.79 in (1979)
Month to date precipitation 0.51  
Year to date precipitation 13.02  
Snow  
Snow 0.00 in - - ()
Month to date snowfall  
Since 1 July snowfall  
Snow Depth -    
Sea Level Pressure  
Sea Level Pressure 30.01 in    
Wind  
Wind Speed 8 mph (West)    
Max Wind Speed 21 mph    
Max Gust Speed 33 mph    
Visibility 10 miles    
Events      
T = Trace of Precipitation, MM = Missing Value Source: NWS Daily Summary

Daily Weather History Graph

Daily Weather History Graph

Search for Another Location

Airport:

Trip Planner

Search our weather history database for the weather conditions in past years. The results will help you decide how hot, cold, wet, or windy it might be!

Date:

Astronomy

May. 04, 2014 Rise Set
Actual Time 6:29 AM EDT 8:19 PM EDT
Civil Twilight 6:01 AM EDT 8:47 PM EDT
Nautical Twilight 5:27 AM EDT 9:21 PM EDT
Astronomical Twilight 4:50 AM EDT 9:57 PM EDT
Moon 10:52 AM EDT (5/4) 12:22 AM EDT (5/4)
Length of Visible Light 14h 45m
Length of Day
13h 49m
Waxing Crescent, 27% of the Moon is Illuminated
May 4
Waxing Crescent
May 6
First Quarter
May 14
Full
May 21
Last Quarter
May 28
New

Hourly Weather History & Observations

Time (EDT) Temp. Dew Point Humidity Pressure Visibility Wind Dir Wind Speed Gust Speed Precip Events Conditions
12:15 AM 58.8 °F 39.6 °F 49% 30.02 in 10.0 mi WNW 3.5 mph - N/A   Clear
12:35 AM 58.8 °F 39.6 °F 49% 30.03 in 10.0 mi West 3.5 mph - N/A   Clear
12:55 AM 58.6 °F 39.9 °F 50% 30.02 in 10.0 mi WNW 3.5 mph - N/A   Clear
1:15 AM 58.3 °F 40.1 °F 51% 30.03 in 10.0 mi West 4.6 mph - N/A   Clear
1:35 AM 57.7 °F 40.3 °F 52% 30.03 in 10.0 mi West 6.9 mph - N/A   Clear
1:55 AM 58.3 °F 40.5 °F 52% 30.03 in 10.0 mi West 6.9 mph - N/A   Clear
2:15 AM 57.7 °F 40.5 °F 53% 30.03 in 10.0 mi West 8.1 mph - N/A   Clear
2:35 AM 57.4 °F 40.5 °F 53% 30.02 in 10.0 mi West 8.1 mph - N/A   Clear
2:55 AM 57.4 °F 40.8 °F 54% 30.03 in 10.0 mi West 6.9 mph - N/A   Clear
3:15 AM 57.0 °F 41.0 °F 55% 30.03 in 10.0 mi West 8.1 mph - N/A   Clear
3:35 AM 56.7 °F 41.0 °F 56% 30.03 in 10.0 mi West 8.1 mph - N/A   Clear
3:55 AM 55.9 °F 41.0 °F 57% 30.03 in 10.0 mi West 6.9 mph - N/A   Clear
4:15 AM 55.9 °F 41.0 °F 57% 30.03 in 10.0 mi West 6.9 mph - N/A   Clear
4:35 AM 54.7 °F 41.0 °F 60% 30.03 in 10.0 mi West 8.1 mph - N/A   Clear
4:55 AM 54.7 °F 40.8 °F 60% 30.03 in 10.0 mi WSW 6.9 mph - N/A   Clear
5:15 AM 55.8 °F 40.1 °F 56% 30.03 in 10.0 mi WSW 6.9 mph - N/A   Clear
5:35 AM 55.6 °F 39.6 °F 55% 30.03 in 10.0 mi WSW 5.8 mph - N/A   Clear
5:55 AM 55.2 °F 39.6 °F 56% 30.03 in 10.0 mi WSW 5.8 mph - N/A   Clear
6:15 AM 55.4 °F 40.1 °F 56% 30.03 in 10.0 mi WSW 6.9 mph - N/A   Clear
6:35 AM 55.2 °F 40.1 °F 57% 30.04 in 10.0 mi WSW 5.8 mph - N/A   Clear
6:55 AM 55.0 °F 40.1 °F 57% 30.05 in 10.0 mi WSW 5.8 mph - N/A   Scattered Clouds
7:15 AM 55.6 °F 40.3 °F 56% 30.05 in 10.0 mi WSW 4.6 mph - N/A   Scattered Clouds
7:35 AM 56.3 °F 40.5 °F 55% 30.05 in 10.0 mi WSW 5.8 mph - N/A   Scattered Clouds
7:55 AM 57.2 °F 41.4 °F 55% 30.05 in 10.0 mi WSW 6.9 mph - N/A   Clear
8:15 AM 57.7 °F 41.2 °F 54% 30.05 in 10.0 mi West 8.1 mph - N/A   Clear
8:35 AM 58.6 °F 42.1 °F 54% 30.06 in 10.0 mi West 8.1 mph - N/A   Clear
8:55 AM 59.7 °F 42.1 °F 52% 30.06 in 10.0 mi West 8.1 mph - N/A   Clear
9:15 AM 60.8 °F 41.9 °F 50% 30.06 in 10.0 mi WSW 10.4 mph - N/A   Clear
9:55 AM 63.1 °F 43.0 °F 48% 30.06 in 10.0 mi West 9.2 mph - N/A   Clear
10:15 AM 63.9 °F 43.5 °F 48% 30.05 in 10.0 mi WSW 10.4 mph - N/A   Clear
10:35 AM 65.3 °F 44.1 °F 46% 30.05 in 10.0 mi West 6.9 mph 16.1 mph N/A   Clear
10:55 AM 66.2 °F 43.5 °F 44% 30.05 in 10.0 mi WSW 15.0 mph 21.9 mph N/A   Clear
11:15 AM 68.4 °F 45.0 °F 43% 30.04 in 10.0 mi WSW 10.4 mph 17.3 mph N/A   Clear
11:35 AM 69.1 °F 43.9 °F 40% 30.03 in 10.0 mi WSW 16.1 mph 21.9 mph N/A   Clear
11:55 AM 70.7 °F 44.6 °F 39% 30.03 in 10.0 mi WSW 10.4 mph 18.4 mph N/A   Clear
12:15 PM 71.1 °F 44.8 °F 39% 30.03 in 10.0 mi WSW 11.5 mph 19.6 mph N/A   Clear
12:35 PM 72.7 °F 45.9 °F 38% 30.02 in 10.0 mi WSW 15.0 mph 23.0 mph N/A   Clear
12:55 PM 72.7 °F 44.8 °F 37% 30.01 in 10.0 mi SW 8.1 mph - N/A   Scattered Clouds
1:15 PM 73.8 °F 45.9 °F 37% 30.01 in 10.0 mi WSW 12.7 mph 17.3 mph N/A   Scattered Clouds
1:35 PM 74.8 °F 46.6 °F 37% 30.00 in 10.0 mi West 12.7 mph 24.2 mph N/A   Mostly Cloudy
1:55 PM 75.0 °F 41.4 °F 30% 30.00 in 10.0 mi West 11.5 mph 29.9 mph N/A   Mostly Cloudy
2:15 PM 76.3 °F 39.9 °F 27% 29.98 in 10.0 mi WNW 20.7 mph 33.4 mph N/A   Scattered Clouds
2:35 PM 77.2 °F 39.9 °F 26% 29.98 in 10.0 mi WNW 11.5 mph 24.2 mph N/A   Scattered Clouds
2:55 PM 78.1 °F 40.1 °F 26% 29.97 in 10.0 mi WNW 16.1 mph 32.2 mph N/A   Clear
3:15 PM 78.6 °F 39.9 °F 25% 29.97 in 10.0 mi NW 18.4 mph 29.9 mph N/A   Scattered Clouds
3:35 PM 78.1 °F 39.6 °F 25% 29.97 in 10.0 mi WNW 15.0 mph 26.5 mph N/A   Scattered Clouds
3:55 PM 78.3 °F 41.2 °F 27% 29.96 in 10.0 mi West 13.8 mph 26.5 mph N/A   Scattered Clouds
4:15 PM 77.9 °F 40.1 °F 26% 29.96 in 10.0 mi WNW 15.0 mph 28.8 mph N/A   Scattered Clouds
4:35 PM 76.8 °F 39.9 °F 27% 29.96 in 10.0 mi WNW 17.3 mph 26.5 mph N/A   Scattered Clouds
4:55 PM 77.9 °F 39.9 °F 26% 29.96 in 10.0 mi WNW 16.1 mph 25.3 mph N/A   Scattered Clouds
5:15 PM 78.3 °F 40.3 °F 26% 29.96 in 10.0 mi NW 15.0 mph 27.6 mph N/A   Scattered Clouds
5:35 PM 78.1 °F 41.5 °F 27% 29.96 in 10.0 mi WNW 10.4 mph 18.4 mph N/A   Scattered Clouds
5:55 PM 77.9 °F 40.5 °F 26% 29.96 in 10.0 mi NW 17.3 mph 29.9 mph N/A   Scattered Clouds
6:15 PM 77.9 °F 40.3 °F 26% 29.96 in 10.0 mi West 15.0 mph 28.8 mph N/A   Scattered Clouds
6:35 PM 77.5 °F 40.6 °F 27% 29.96 in 10.0 mi WNW 15.0 mph 24.2 mph N/A   Scattered Clouds
6:55 PM 76.3 °F 41.2 °F 28% 29.96 in 10.0 mi NW 9.2 mph 21.9 mph N/A   Scattered Clouds
7:15 PM 75.6 °F 43.0 °F 31% 29.96 in 10.0 mi NW 6.9 mph 17.3 mph N/A   Scattered Clouds
7:35 PM 75.2 °F 43.5 °F 32% 29.97 in 10.0 mi NNW 6.9 mph - N/A   Scattered Clouds
7:55 PM 73.9 °F 43.5 °F 34% 29.98 in 10.0 mi NW 10.4 mph 17.3 mph N/A   Clear
8:15 PM 72.9 °F 42.8 °F 34% 29.98 in 10.0 mi NW 9.2 mph - N/A   Clear
8:35 PM 72.5 °F 42.4 °F 34% 29.99 in 10.0 mi NW 9.2 mph - N/A   Clear
8:55 PM 71.6 °F 42.8 °F 35% 29.99 in 10.0 mi NW 5.8 mph - N/A   Clear
9:15 PM 70.9 °F 42.8 °F 36% 30.00 in 10.0 mi NW 4.6 mph - N/A   Clear
9:35 PM 70.2 °F 43.2 °F 38% 30.00 in 10.0 mi NW 5.8 mph - N/A   Clear
9:55 PM 70.0 °F 43.3 °F 38% 30.00 in 10.0 mi NW 5.8 mph - N/A   Clear
10:15 PM 68.9 °F 43.7 °F 40% 30.01 in 10.0 mi NNW 6.9 mph - N/A   Clear
10:35 PM 68.0 °F 44.1 °F 42% 30.01 in 10.0 mi NNW 6.9 mph - N/A   Clear
10:55 PM 67.8 °F 44.2 °F 43% 30.01 in 10.0 mi NNW 8.1 mph - N/A   Clear
11:15 PM 67.1 °F 44.6 °F 44% 30.01 in 10.0 mi NNW 5.8 mph - N/A   Clear
11:35 PM 66.4 °F 44.8 °F 46% 30.02 in 10.0 mi NW 4.6 mph - N/A   Clear
11:55 PM 65.3 °F 44.8 °F 47% 30.02 in 10.0 mi NNW 3.5 mph - N/A   Clear